Satellite: HRBE Catalog number: 37855 Epoch time: 13065.67535111 Element set: 437 Inclination: 101.7172 deg RA of node: 232.3967 deg Eccentricity: 0.0239965 Arg of perigee: 320.2502 deg Mean anomaly: 094.0523 deg Mean motion: 14.82771027 rev/day Decay rate: 2.899e-05 rev/day^2 Epoch rev: 7325 Checksum: 300
Satellite: RS-39 Catalog number: 38051 Epoch time: 13066.89169569 Element set: 236 Inclination: 051.6366 deg RA of node: 338.3635 deg Eccentricity: 0.0011219 Arg of perigee: 255.8190 deg Mean anomaly: 149.4677 deg Mean motion: 15.29675848 rev/day Decay rate: 1.3673e-04 rev/day^2 Epoch rev: 6226 Checksum: 348
Satellite: E-STAR Catalog number: 38079 Epoch time: 13066.42678911 Element set: 947 Inclination: 069.4807 deg RA of node: 064.6842 deg Eccentricity: 0.0660703 Arg of perigee: 270.4446 deg Mean anomaly: 214.3941 deg Mean motion: 14.35709774 rev/day Decay rate: 4.5162e-04 rev/day^2 Epoch rev: 5508 Checksum: 329
Satellite: GOLIAT Catalog number: 38085 Epoch time: 13066.41598161 Element set: 879 Inclination: 069.4842 deg RA of node: 066.1829 deg Eccentricity: 0.0667188 Arg of perigee: 271.1318 deg Mean anomaly: 081.3506 deg Mean motion: 14.34095984 rev/day Decay rate: 4.2121e-04 rev/day^2 Epoch rev: 5504 Checksum: 324
Satellite: HORYU-2 Catalog number: 38340 Epoch time: 13066.39779925 Element set: 404 Inclination: 098.2053 deg RA of node: 013.2499 deg Eccentricity: 0.0012010 Arg of perigee: 212.3285 deg Mean anomaly: 147.7172 deg Mean motion: 14.70653486 rev/day Decay rate: 1.072e-05 rev/day^2 Epoch rev: 4315 Checksum: 282
Satellite: RS-40 Catalog number: 38736 Epoch time: 13066.41360849 Element set: 204 Inclination: 082.4753 deg RA of node: 218.5777 deg Eccentricity: 0.0020666 Arg of perigee: 181.4557 deg Mean anomaly: 178.6465 deg Mean motion: 12.43229665 rev/day Decay rate: 1.0e-07 rev/day^2 Epoch rev: 2760 Checksum: 309
Satellite: PROITERES Catalog number: 38756 Epoch time: 13066.91211723 Element set: 573 Inclination: 098.2609 deg RA of node: 142.0700 deg Eccentricity: 0.0013764 Arg of perigee: 071.4156 deg Mean anomaly: 288.8541 deg Mean motion: 14.74094044 rev/day Decay rate: 4.66e-06 rev/day^2 Epoch rev: 2647 Checksum: 296
Satellite: RAIKO Catalog number: 38852 Epoch time: 13065.85596663 Element set: 159 Inclination: 051.6410 deg RA of node: 250.7452 deg Eccentricity: 0.0013589 Arg of perigee: 334.5767 deg Mean anomaly: 025.4557 deg Mean motion: 15.62553703 rev/day Decay rate: 5.3873e-04 rev/day^2 Epoch rev: 2379 Checksum: 326
Satellite: FITSAT 1 Catalog number: 38853 Epoch time: 13065.93699592 Element set: 158 Inclination: 051.6425 deg RA of node: 249.0550 deg Eccentricity: 0.0010154 Arg of perigee: 344.3583 deg Mean anomaly: 015.7097 deg Mean motion: 15.65128713 rev/day Decay rate: 7.1930e-04 rev/day^2 Epoch rev: 2387 Checksum: 313
Satellite: TechEdSat Catalog number: 38854 Epoch time: 13065.85912717 Element set: 180 Inclination: 051.6388 deg RA of node: 246.2456 deg Eccentricity: 0.0008753 Arg of perigee: 335.3520 deg Mean anomaly: 024.7059 deg Mean motion: 15.72339313 rev/day Decay rate: 1.42880e-03 rev/day^2 Epoch rev: 2390 Checksum: 303
Satellite: F 1 Catalog number: 38855 Epoch time: 13066.01822829 Element set: 182 Inclination: 051.6379 deg RA of node: 245.8022 deg Eccentricity: 0.0008852 Arg of perigee: 337.5122 deg Mean anomaly: 022.5487 deg Mean motion: 15.71453947 rev/day Decay rate: 1.29343e-03 rev/day^2 Epoch rev: 2381 Checksum: 305
Satellite: WeWish Catalog number: 38856 Epoch time: 13066.89699107 Element set: 233 Inclination: 051.6276 deg RA of node: 232.0091 deg Eccentricity: 0.0012513 Arg of perigee: 308.2968 deg Mean anomaly: 051.6715 deg Mean motion: 16.10694334 rev/day Decay rate: 1.702681e-02 rev/day^2 Epoch rev: 2408 Checksum: 301
/EX